User: anonymous
Location: Kitchener
(43.2612°N, 80.5078°W)
Time: 13:17:08
(UTC+02:00)
Language:

Iridium 57 - Orbit

View from above orbital plane
View from above orbital plane
View from above satellite
View from above satellite

Ground track
Ground track

The orbit data is extracted from the following two-line orbital elements,

1 25273U 98019B   14243.45005138  .00000263  00000-0  86850-4 0  8773
2 25273 086.4012 353.9502 0002341 111.8977 248.2468 14.34220066859760
Epoch (UTC): 31 August 2014 10:48:04
Eccentricity: 0.0002341
inclination: 86.4012°
perigee height: 776 km
apogee height: 779 km
right ascension of ascending node: 353.9502°
argument of perigee: 111.8977°
revolutions per day: 14.34220066
mean anomaly at epoch: 248.2468°
orbit number at epoch: 85976

The dashed part of the orbit path shows where the satellite is in the earth's shadow,  

DLR